[[{"header":{"parameterUnit":"m.s-1","parameterCategory":2,"la1":30.2991,"la2":30.254,"lo1":-89.0895,"lo2":-89.0444,"dy":0.0017,"dx":0.0017,"nx":28,"ny":28,"refTime":"2025-11-19T09:00:00:Z","depth":"0","parameterNumber":2,"parameterNumberName":"U-component_of_CURRENTS"},"data":[0,0,0,0,0,0,0,0,0,0,0,0,0,0,0,0,0,0,0,0,0,0,0,0,0,0,0,0,0,0,0,0,0,0,0,0,0,0,0,0,0,0,0,0,0,0,0,0,0,0,0,0,0,0,0,0,0,0,0.3647,0.3647,0,0.3658,0.3658,0.3658,0.3647,0.3647,0.3647,0.3647,0.3642,0.3642,0.3642,0,0,0,0,0,0,0,0,0,0,0,0,0,0.3645,0.3644,0.3647,0.3647,0.3647,0.3658,0.3658,0.3658,0.3647,0.3647,0.3647,0.3647,0.3642,0.3642,0.3642,0,0,0,0,0,0,0,0,0,0,0,0,0,0.3647,0.3644,0.3647,0.3645,0.3645,0.3658,0.3658,0.3658,0.3647,0.3647,0.3647,0.3646,0.3642,0.3642,0.3642,0.3649,0,0,0.3642,0.3642,0,0,0,0,0,0,0,0,0.3647,0.3647,0.3645,0.3645,0.3645,0.3653,0.3655,0.3655,0.3647,0.3644,0.3647,0.3646,0.3646,0.3645,0.3645,0.3649,0.3648,0.3642,0.3642,0.3642,0.3642,0,0,0,0,0,0,0,0.3647,0.3647,0.3649,0.3645,0.3646,0.3654,0.3653,0.3655,0.3644,0.3644,0.3644,0.3649,0.3645,0.3645,0.3645,0.3648,0.3642,0.3642,0.3642,0.3642,0.3693,0.3694,0,0,0,0,0,0,0.3649,0.3646,0.3648,0.3649,0.3648,0.3654,0.3653,0.3649,0.3645,0.3645,0.3649,0.3649,0.3645,0.3645,0.3645,0.3678,0.3642,0.3642,0.3642,0.3691,0.3693,0.3694,0,0,0,0,0,0,0.3649,0.3649,0.3648,0.3651,0.3651,0.3654,0.3649,0.3649,0.3653,0.3649,0.3648,0.3654,0.3645,0.3645,0.3656,0.3677,0.3642,0.3643,0.369,0.3692,0.3693,0.3729,0,0,0,0,0,0,0.3648,0.3648,0.3647,0.365,0.3651,0.3661,0.365,0.365,0.3658,0.3657,0.3653,0.3652,0.3645,0.3656,0.3657,0.3677,0.3643,0.3688,0.3691,0.3693,0.3726,0.3732,0.3737,0,0,0,0,0,0.3648,0.3646,0.3646,0.3647,0.3648,0.3662,0.3663,0.3663,0.3658,0.3664,0.3665,0.3652,0.3672,0.3657,0.3657,0.3678,0.3687,0.369,0.3693,0.3724,0.3731,0.3737,0,0,0,0,0,0,0.3644,0.3646,0.3645,0.3644,0.3656,0.3661,0.3667,0.3668,0.3673,0.3672,0.3664,0.3663,0.3685,0.3678,0.3662,0.3701,0.368,0.3683,0.3704,0.371,0.3715,0.3731,0.3643,0,0,0,0,0,0.3643,0.3641,0.3651,0.3651,0.3658,0.3664,0.367,0.3673,0.3678,0.3679,0.3677,0.3682,0.3697,0.3699,0.3708,0.3723,0.3753,0.3739,0.3744,0.3749,0.3764,0.3828,0.384,0.3704,0.3704,0.3703,0,0,0.364,0.3643,0.364,0.365,0.3657,0.3673,0.3666,0.3679,0.3695,0.3679,0.3694,0.37,0.3707,0.3729,0.3738,0.3724,0.3806,0.3752,0.3756,0.3769,0.3832,0.3845,0.3857,0.3705,0.3705,0.3705,0,0,0.3637,0.3639,0.3638,0.3653,0.3671,0.3682,0.3688,0.37,0.3707,0.3723,0.3725,0.3748,0.3751,0.3771,0.3779,0.3821,0.3835,0.3819,0.3853,0.3915,0.3927,0.3938,0.4004,0.402,0.3817,0.3817,0.3817,0,0.3635,0.3634,0.3643,0.3656,0.367,0.3688,0.3701,0.3719,0.3732,0.375,0.3733,0.378,0.3777,0.383,0.384,0.3834,0.3872,0.3825,0.3923,0.3934,0.3945,0.401,0.4027,0.3819,0.3819,0.3819,0.3819,0,0.3634,0.3642,0.3648,0.3668,0.3688,0.3703,0.3733,0.3754,0.3763,0.3784,0.3832,0.3839,0.387,0.3874,0.3864,0.3941,0.3946,0.3925,0.3907,0.3961,0.4025,0.4043,0.3822,0.3822,0.3821,0.382,0,0,0.3606,0.3638,0.364,0.3652,0.3695,0.3708,0.3751,0.3794,0.3838,0.3852,0.3909,0.3931,0.3945,0.3958,0.3961,0.4008,0.4109,0.3997,0.3999,0.4062,0.4259,0.4226,0.4242,0.4105,0.4108,0.411,0.4278,0,0.3601,0.3618,0.3642,0.367,0.3682,0.3726,0.3769,0.3817,0.3864,0.3927,0.3958,0.4014,0.3976,0.4005,0.4044,0.4108,0.4156,0.4066,0.4197,0.4202,0.4165,0.4261,0.4126,0.4261,0.4295,0.4298,0.4301,0,0.3587,0.3603,0.362,0.3671,0.3683,0.3709,0.3791,0.3836,0.394,0.3986,0.4053,0.4088,0.4175,0.4124,0.4259,0.4206,0.4233,0.4268,0.4274,0.4244,0.4202,0.4211,0.4292,0.4167,0.4328,0.4326,0.4324,0,0.3545,0.3586,0.3595,0.3611,0.3677,0.3699,0.3743,0.3845,0.3917,0.4039,0.4128,0.4204,0.429,0.433,0.4392,0.4339,0.4543,0.4477,0.4473,0.4471,0.4383,0.4368,0.4358,0.4562,0.4561,0.4561,0.456,0,0.3521,0.3528,0.3574,0.3578,0.3614,0.3672,0.3749,0.3816,0.3955,0.4078,0.4157,0.4284,0.4349,0.4461,0.4461,0.455,0.4603,0.4515,0.4524,0.4392,0.4376,0.4283,0.4244,0.4567,0.4566,0.4565,0.4564,0,0.3465,0.3494,0.3509,0.3569,0.359,0.3614,0.3743,0.382,0.3967,0.4139,0.4193,0.4391,0.4548,0.4603,0.4716,0.4674,0.4609,0.4732,0.4577,0.4563,0.4394,0.4364,0.424,0.4109,0.4756,0.4756,0.4757,0,0.3431,0.3434,0.3486,0.3507,0.3529,0.3592,0.3654,0.3796,0.3907,0.4211,0.4301,0.4518,0.4663,0.4832,0.4795,0.4817,0.4646,0.4691,0.4545,0.4401,0.4374,0.4173,0.4056,0.4454,0.4452,0.445,0.4449,0,0.3378,0.3398,0.3418,0.3474,0.352,0.3585,0.369,0.3771,0.3987,0.4154,0.4391,0.4535,0.4736,0.4714,0.4762,0.4747,0.447,0.4653,0.4545,0.4187,0.3927,0.38,0.4336,0.4433,0.4434,0.4436,0.4436,0.4437,0.3341,0.3351,0.3401,0.3446,0.3502,0.3572,0.3595,0.3746,0.3901,0.4108,0.432,0.4449,0.4571,0.462,0.4579,0.4415,0.437,0.4266,0.4264,0.4087,0.3877,0.4385,0.4454,0.4455,0.4457,0.4458,0.4459,0,0.3313,0.3342,0.3382,0.3432,0.3466,0.3518,0.362,0.3631,0.3753,0.3944,0.41,0.4175,0.4216,0.4247,0.4189,0.4032,0.3816,0.3932,0.3614,0.3533,0.4041,0.3942,0.385,0.385,0.385,0.385,0.385,0.3851,0.3305,0.333,0.3356,0.3391,0.3416,0.341,0.3429,0.3455,0.3531,0.3583,0.3593,0.3673,0.3878,0.3997,0.3853,0.3756,0.3433,0.3318,0.3276,0.3651,0.368,0.3706,0.36,0.3438,0.3438,0.2585,0.2579,0.2574]},{"header":{"parameterUnit":"m.s-1","parameterCategory":2,"la1":30.2991,"la2":30.254,"lo1":-89.0895,"lo2":-89.0444,"dy":0.0017,"dx":0.0017,"nx":28,"ny":28,"refTime":"2025-11-19T09:00:00:Z","depth":"0","parameterNumber":3,"parameterNumberName":"V-component_of_CURRENTS"},"data":[0,0,0,0,0,0,0,0,0,0,0,0,0,0,0,0,0,0,0,0,0,0,0,0,0,0,0,0,0,0,0,0,0,0,0,0,0,0,0,0,0,0,0,0,0,0,0,0,0,0,0,0,0,0,0,0,0,0,0.0167,0.0166,0,0.0113,0.0112,0.0111,0.0068,0.0068,0.0068,0.0068,-0.0008,-0.0009,-0.0011,0,0,0,0,0,0,0,0,0,0,0,0,0,0.0173,0.0173,0.0167,0.0166,0.0166,0.0113,0.0112,0.0111,0.0068,0.0068,0.0068,0.0068,-0.0007,-0.0009,-0.0011,0,0,0,0,0,0,0,0,0,0,0,0,0,0.0148,0.0173,0.0167,0.014,0.0137,0.0113,0.0112,0.0111,0.0069,0.0068,0.0068,0.0068,-0.0006,-0.0009,-0.0012,-0.0022,0,0,-0.002,-0.0021,0,0,0,0,0,0,0,0,0.0149,0.0147,0.0144,0.0142,0.0139,0.0099,0.0086,0.0066,0.0069,0.0092,0.0068,0.0067,0.0028,0.0022,0.001,-0.0026,-0.0029,-0.002,-0.0022,-0.0023,-0.0024,0,0,0,0,0,0,0,0.0151,0.0149,0.0143,0.0144,0.0141,0.011,0.0106,0.0082,0.006,0.009,0.0087,0.0085,0.0026,0.0013,0.0008,-0.003,-0.002,-0.0023,-0.0024,-0.0025,-0.007,-0.007,0,0,0,0,0,0,0.0166,0.0151,0.0145,0.0142,0.0146,0.0111,0.0106,0.011,0.0061,0.0054,0.0086,0.0084,0.0017,0.0011,0.0005,0.0012,-0.0023,-0.0026,-0.0027,-0.007,-0.007,-0.0069,0,0,0,0,0,0,0.0167,0.0166,0.0147,0.0146,0.0142,0.0112,0.0116,0.0109,0.01,0.0058,0.005,0.0084,0.0017,0.0009,-0.0007,0.0008,-0.0027,-0.0029,-0.0071,-0.007,-0.007,0.0011,0,0,0,0,0,0,0.0167,0.0167,0.0172,0.0148,0.0143,0.0145,0.0116,0.0109,0.01,0.0097,0.0054,0.0046,0.0016,-0.0002,-0.0009,0.0003,-0.0031,-0.0072,-0.0071,-0.007,0.0008,0.0015,0.002,0,0,0,0,0,0.0168,0.0184,0.0173,0.0172,0.0152,0.0146,0.0141,0.0116,0.0101,0.0105,0.0075,0.0048,-0.0002,-0.0004,-0.0012,-0.0,-0.0072,-0.0071,-0.007,0.0005,0.0013,0.002,0,0,0,0,0,0,0.0189,0.0181,0.0168,0.018,0.0168,0.014,0.014,0.0123,0.0102,0.0098,0.0055,0.0046,0.0035,0.0007,0.0006,-0.0012,-0.0042,-0.0043,0.0018,0.0025,0.0031,0.0054,-0.0034,0,0,0,0,0,0.0197,0.0207,0.019,0.0199,0.0197,0.0168,0.0162,0.0147,0.0126,0.0116,0.0087,0.0055,0.0031,0.0021,-0.0007,-0.0013,-0.0038,-0.0012,-0.0006,-0.0,0.0012,-0.0016,-0.001,-0.0066,-0.0066,-0.0066,0,0,0.0207,0.0204,0.0208,0.0204,0.019,0.0203,0.0163,0.0162,0.0171,0.0112,0.0112,0.0074,0.0033,0.0025,0.0018,0.0006,0.0003,0.0001,0.0006,0.0015,-0.0014,-0.0008,-0.0004,-0.0065,-0.0066,-0.0066,0,0,0.0241,0.023,0.0252,0.0249,0.024,0.0227,0.0233,0.021,0.0199,0.0192,0.0152,0.0128,0.0091,0.0069,0.0052,0.0075,0.0033,0.0062,0.0116,0.0089,0.0094,0.0098,0.0079,0.008,0.0069,0.0069,0.0069,0,0.0252,0.028,0.0256,0.0278,0.0287,0.0247,0.0277,0.0259,0.0235,0.0235,0.0204,0.0153,0.0114,0.0111,0.0116,0.0091,0.0069,0.0094,0.0099,0.0102,0.0104,0.0084,0.0084,0.0073,0.0072,0.0072,0.0072,0,0.0305,0.0325,0.0338,0.0356,0.036,0.0378,0.036,0.0355,0.0332,0.0316,0.03,0.024,0.0214,0.0192,0.016,0.0162,0.014,0.0108,0.0085,0.0115,0.0091,0.009,0.0079,0.0077,0.0076,0.0075,0,0,0.0341,0.0372,0.0377,0.0404,0.0407,0.0421,0.0433,0.0442,0.0465,0.0412,0.0435,0.037,0.0332,0.031,0.026,0.0232,0.0225,0.0184,0.0181,0.0175,0.0173,0.0162,0.0159,0.0193,0.0193,0.0193,0.0152,0,0.0392,0.0458,0.0457,0.0519,0.0554,0.0529,0.055,0.0548,0.0535,0.0543,0.0471,0.0464,0.038,0.0369,0.0328,0.0261,0.0225,0.0239,0.0137,0.0134,0.0128,0.0159,0.0194,0.016,0.0151,0.015,0.015,0,0.0447,0.0489,0.0562,0.0615,0.0627,0.0652,0.069,0.0708,0.0699,0.0688,0.0658,0.0599,0.0556,0.0472,0.0366,0.038,0.0283,0.0215,0.0211,0.0174,0.0122,0.0125,0.0158,-0.0036,0.0148,0.0149,0.0149,0,0.0498,0.0563,0.0629,0.0646,0.0693,0.0716,0.074,0.0751,0.0796,0.0785,0.082,0.073,0.0715,0.0578,0.043,0.0399,0.0315,0.0251,0.0144,0.0142,0.0139,0.0137,-0.0019,0.0162,0.0162,0.0162,0.0162,0,0.0558,0.061,0.0658,0.0694,0.0779,0.0783,0.0873,0.0876,0.0919,0.1012,0.0906,0.0958,0.074,0.0661,0.0489,0.0338,0.0357,0.0167,0.0135,0.0168,0.0169,-0.0028,-0.0142,0.016,0.0161,0.0161,0.0161,0,0.0604,0.0631,0.0716,0.078,0.0805,0.0869,0.097,0.1042,0.1066,0.1186,0.119,0.1139,0.1047,0.0828,0.0626,0.0445,0.0167,0.0205,0.0262,0.0237,-0.0061,-0.0169,-0.0365,-0.0456,0.0079,0.0079,0.0078,0,0.0635,0.0682,0.0784,0.0846,0.0878,0.0975,0.1051,0.1105,0.1201,0.1323,0.1395,0.1334,0.1351,0.105,0.0697,0.0395,0.0182,0.0199,0.0128,-0.006,-0.0205,-0.0303,-0.0372,0.0155,0.0155,0.0155,0.0156,0,0.0701,0.0732,0.0804,0.0932,0.1023,0.1146,0.1261,0.1358,0.1461,0.1593,0.1747,0.1773,0.1495,0.1208,0.076,0.0539,0.0065,0.0193,-0.0016,-0.0165,-0.0266,-0.0372,0.0162,0.0158,0.0157,0.0157,0.0157,0.0157,0.0748,0.0813,0.0907,0.103,0.1145,0.1298,0.1419,0.1578,0.1774,0.2003,0.201,0.2127,0.167,0.108,0.0732,0.0099,0.0063,-0.01,-0.0216,-0.0298,-0.0391,0.0151,0.0116,0.0115,0.0115,0.0115,0.0114,0,0.0812,0.0885,0.1002,0.1152,0.1291,0.134,0.1552,0.1704,0.1969,0.2205,0.2373,0.2238,0.1688,0.1086,0.0222,-0.023,-0.0406,-0.0476,-0.0613,-0.0667,-0.0186,-0.0189,-0.0273,-0.0272,-0.0272,-0.0272,-0.0272,-0.0272,0.0847,0.0959,0.1019,0.1243,0.1358,0.1561,0.1691,0.1939,0.2144,0.2461,0.257,0.2603,0.2129,0.0607,-0.0396,-0.0608,-0.0957,-0.1029,-0.1209,-0.0891,-0.0865,-0.084,-0.087,-0.1096,-0.1097,-0.1625,-0.163,-0.1634]}],[{"header":{"parameterUnit":"m.s-1","parameterCategory":2,"la1":30.2991,"la2":30.254,"lo1":-89.0895,"lo2":-89.0444,"dy":0.0017,"dx":0.0017,"nx":28,"ny":28,"refTime":"2025-11-19T09:00:00:Z","depth":"2","parameterNumber":2,"parameterNumberName":"U-component_of_CURRENTS"},"data":[0,0,0,0,0,0,0,0,0,0,0,0,0,0,0,0,0,0,0,0,0,0,0,0,0,0,0,0,0,0,0,0,0,0,0,0,0,0,0,0,0,0,0,0,0,0,0,0,0,0,0,0,0,0,0,0,0,0,0.2959,0.296,0,0.2981,0.2981,0.2981,0.2983,0.2983,0.2983,0.2983,0.2987,0.2987,0.2987,0,0,0,0,0,0,0,0,0,0,0,0,0,0.2922,0.2923,0.2959,0.296,0.296,0.2981,0.2981,0.2981,0.2983,0.2983,0.2983,0.2983,0.2987,0.2987,0.2987,0,0,0,0,0,0,0,0,0,0,0,0,0,0.2938,0.2923,0.2959,0.2966,0.2967,0.2981,0.2981,0.2981,0.2983,0.2983,0.2983,0.2983,0.2987,0.2987,0.2987,0.2988,0,0,0.2988,0.2988,0,0,0,0,0,0,0,0,0.2937,0.2939,0.2964,0.2965,0.2966,0.2981,0.297,0.2983,0.2983,0.2974,0.2983,0.2983,0.2985,0.2985,0.2986,0.2988,0.2989,0.2988,0.2988,0.2988,0.2988,0,0,0,0,0,0,0,0.2936,0.2938,0.2965,0.2965,0.2966,0.2968,0.297,0.2972,0.2977,0.2975,0.2976,0.2982,0.2985,0.2986,0.2986,0.2989,0.2988,0.2988,0.2988,0.2988,0.3047,0.3048,0,0,0,0,0,0,0.2939,0.2937,0.2965,0.2966,0.2954,0.2969,0.2971,0.2974,0.2977,0.2979,0.2982,0.2982,0.2986,0.2986,0.2986,0.3033,0.2988,0.2988,0.2988,0.3045,0.3047,0.3049,0,0,0,0,0,0,0.2938,0.2941,0.2964,0.2954,0.2958,0.297,0.2973,0.2975,0.2989,0.2984,0.2984,0.2996,0.2986,0.2986,0.3005,0.3031,0.2988,0.2988,0.3044,0.3046,0.3048,0.3097,0,0,0,0,0,0,0.2936,0.294,0.2946,0.2954,0.2959,0.2984,0.2974,0.2975,0.2993,0.2994,0.2996,0.2995,0.2986,0.3004,0.3005,0.3031,0.2988,0.3042,0.3045,0.3047,0.3093,0.3101,0.3107,0,0,0,0,0,0.2935,0.2942,0.2946,0.295,0.2966,0.2985,0.2987,0.2994,0.2994,0.3005,0.3009,0.2996,0.3022,0.3006,0.3006,0.3032,0.3041,0.3044,0.3047,0.3091,0.3099,0.3106,0,0,0,0,0,0,0.2928,0.2944,0.2948,0.296,0.2978,0.2987,0.2999,0.3004,0.3015,0.3018,0.3009,0.301,0.3041,0.303,0.3012,0.3059,0.3032,0.3035,0.3065,0.3073,0.3079,0.3093,0.2989,0,0,0,0,0,0.293,0.2941,0.2958,0.2969,0.2981,0.2993,0.3003,0.3011,0.3021,0.3027,0.3029,0.3036,0.3052,0.3057,0.3067,0.3085,0.3102,0.3105,0.3112,0.3117,0.3131,0.3178,0.319,0.306,0.306,0.306,0,0,0.2929,0.2942,0.2947,0.2969,0.2983,0.3004,0.2999,0.3022,0.3042,0.3025,0.3052,0.3061,0.3065,0.3092,0.3105,0.3086,0.3166,0.3122,0.3126,0.3137,0.3183,0.3196,0.3207,0.3062,0.3061,0.3061,0,0,0.2933,0.2948,0.2959,0.2979,0.3008,0.302,0.3031,0.3052,0.3065,0.3091,0.3093,0.312,0.313,0.3145,0.3152,0.3201,0.3204,0.3204,0.3243,0.3289,0.33,0.331,0.3358,0.3372,0.3202,0.3202,0.3202,0,0.2933,0.2947,0.2966,0.2987,0.3006,0.303,0.305,0.3072,0.3096,0.3114,0.3107,0.3158,0.3158,0.3205,0.3224,0.3217,0.3244,0.3209,0.3297,0.3308,0.3317,0.3364,0.3379,0.3205,0.3204,0.3204,0.3204,0,0.2944,0.2963,0.2975,0.3009,0.3034,0.3057,0.3092,0.3119,0.3138,0.316,0.3214,0.3226,0.3256,0.3264,0.3257,0.3328,0.3328,0.3304,0.3276,0.3333,0.3379,0.3394,0.3208,0.3207,0.3207,0.3206,0,0,0.2918,0.2971,0.2975,0.2993,0.3047,0.3064,0.3113,0.3158,0.3202,0.323,0.3284,0.3317,0.3335,0.3346,0.3351,0.339,0.348,0.3379,0.338,0.3426,0.3594,0.3544,0.3555,0.3473,0.3475,0.3477,0.3603,0,0.292,0.2952,0.2984,0.3022,0.3042,0.3089,0.3135,0.3185,0.3234,0.3296,0.333,0.3388,0.3363,0.3395,0.3429,0.3477,0.3519,0.3449,0.3534,0.3537,0.3484,0.357,0.3276,0.3359,0.3617,0.362,0.3621,0,0.2913,0.2938,0.2969,0.3028,0.3044,0.3076,0.3157,0.3206,0.3304,0.3351,0.3416,0.3452,0.353,0.3496,0.3602,0.3561,0.3585,0.3611,0.3615,0.3562,0.3513,0.3343,0.3375,0.3645,0.3643,0.3642,0.364,0,0.2869,0.2924,0.2945,0.2966,0.3041,0.307,0.3119,0.3218,0.3278,0.3401,0.3464,0.3548,0.3612,0.3656,0.3706,0.3668,0.3821,0.3767,0.3746,0.3742,0.3506,0.3477,0.3842,0.3841,0.3841,0.3841,0.384,0,0.2848,0.2864,0.2927,0.2939,0.2981,0.3048,0.312,0.3192,0.3315,0.3394,0.349,0.3571,0.3658,0.3743,0.3758,0.3813,0.3864,0.3783,0.3781,0.3515,0.3488,0.3736,0.3722,0.3845,0.3844,0.3843,0.3843,0,0.2792,0.2832,0.2861,0.2935,0.2959,0.2992,0.3108,0.3168,0.33,0.3412,0.3458,0.3624,0.3745,0.3819,0.3924,0.3888,0.3938,0.3935,0.3627,0.3587,0.3814,0.3801,0.393,0.393,0.393,0.3929,0.3929,0,0.2763,0.2773,0.2841,0.2859,0.2891,0.2956,0.3005,0.3142,0.3212,0.3427,0.3469,0.3651,0.374,0.3897,0.389,0.3933,0.3974,0.3671,0.3536,0.3843,0.3828,0.3816,0.3804,0.3245,0.3239,0.3234,0.3231,0,0.2712,0.274,0.2765,0.2803,0.2844,0.2888,0.2967,0.3016,0.318,0.3281,0.3425,0.3527,0.3702,0.3629,0.371,0.3682,0.3639,0.3576,0.3988,0.3271,0.3208,0.319,0.3198,0.3188,0.3192,0.3195,0.3197,0.3199,0.2673,0.2675,0.271,0.2733,0.2775,0.2792,0.2785,0.288,0.2959,0.3064,0.3258,0.3314,0.3399,0.3379,0.3294,0.323,0.3476,0.3301,0.331,0.3327,0.3228,0.3167,0.3122,0.3126,0.3129,0.3132,0.3134,0,0.2609,0.2617,0.2637,0.2643,0.2627,0.2694,0.2731,0.2694,0.2711,0.2861,0.2958,0.2797,0.2791,0.2861,0.2706,0.2726,0.2647,0.2606,0.246,0.2508,0.255,0.2404,0.2084,0.208,0.2076,0.2073,0,0,0.2575,0.2552,0.255,0.2483,0.2488,0.2421,0.2406,0.238,0.2428,0.2417,0.2437,0.2691,0.2808,0.2406,0.237,0.2189,0.2318,0.2107,0.2965,0.2844,0.288,0.2986,0.2823,0,0,0,0,0]},{"header":{"parameterUnit":"m.s-1","parameterCategory":2,"la1":30.2991,"la2":30.254,"lo1":-89.0895,"lo2":-89.0444,"dy":0.0017,"dx":0.0017,"nx":28,"ny":28,"refTime":"2025-11-19T09:00:00:Z","depth":"2","parameterNumber":3,"parameterNumberName":"V-component_of_CURRENTS"},"data":[0,0,0,0,0,0,0,0,0,0,0,0,0,0,0,0,0,0,0,0,0,0,0,0,0,0,0,0,0,0,0,0,0,0,0,0,0,0,0,0,0,0,0,0,0,0,0,0,0,0,0,0,0,0,0,0,0,0,0.0201,0.02,0,0.0149,0.0149,0.0148,0.0112,0.0112,0.0112,0.0112,0.0045,0.0044,0.0042,0,0,0,0,0,0,0,0,0,0,0,0,0,0.0215,0.0215,0.0201,0.02,0.02,0.015,0.0149,0.0148,0.0112,0.0112,0.0112,0.0112,0.0046,0.0044,0.0042,0,0,0,0,0,0,0,0,0,0,0,0,0,0.019,0.0215,0.0201,0.0177,0.0174,0.015,0.0149,0.0148,0.0112,0.0112,0.0112,0.0112,0.0046,0.0044,0.0042,0.0031,0,0,0.0034,0.0033,0,0,0,0,0,0,0,0,0.0191,0.0189,0.0181,0.0179,0.0176,0.0138,0.0129,0.0108,0.0112,0.0134,0.0112,0.0111,0.0076,0.0071,0.006,0.0028,0.0025,0.0034,0.0032,0.0031,0.0031,0,0,0,0,0,0,0,0.0193,0.0191,0.0179,0.0181,0.0177,0.0151,0.0147,0.0125,0.0106,0.0133,0.013,0.0127,0.0074,0.0063,0.0058,0.0024,0.0034,0.0032,0.003,0.0029,-0.0014,-0.0013,0,0,0,0,0,0,0.0205,0.0193,0.0181,0.0178,0.0185,0.0151,0.0147,0.0149,0.0106,0.01,0.0127,0.0125,0.0067,0.0061,0.0056,0.0059,0.0031,0.0029,0.0028,-0.0014,-0.0014,-0.0013,0,0,0,0,0,0,0.0206,0.0205,0.0183,0.0185,0.018,0.0151,0.0154,0.0149,0.014,0.0102,0.0095,0.0125,0.0067,0.0059,0.0045,0.0056,0.0028,0.0026,-0.0014,-0.0014,-0.0014,0.0054,0,0,0,0,0,0,0.0207,0.0206,0.021,0.0186,0.0181,0.0179,0.0154,0.0148,0.0139,0.0136,0.0099,0.0092,0.0066,0.0049,0.0043,0.0052,0.0024,-0.0015,-0.0014,-0.0014,0.0052,0.0057,0.0061,0,0,0,0,0,0.0208,0.0221,0.0211,0.0209,0.0188,0.0179,0.0174,0.0151,0.0139,0.0142,0.0117,0.0093,0.0048,0.0047,0.004,0.0049,-0.0015,-0.0014,-0.0014,0.0049,0.0056,0.0061,0,0,0,0,0,0,0.0228,0.0217,0.0206,0.0215,0.0201,0.0174,0.0173,0.0157,0.0139,0.0136,0.0099,0.0091,0.008,0.0055,0.0055,0.0037,0.0012,0.0011,0.0062,0.0068,0.0073,0.0092,0.0022,0,0,0,0,0,0.0235,0.0243,0.0225,0.0231,0.0227,0.02,0.0193,0.018,0.016,0.0151,0.0125,0.0097,0.0076,0.0066,0.0042,0.0034,0.0006,0.0034,0.0039,0.0043,0.0053,0.0018,0.0021,-0.0011,-0.0011,-0.0011,0,0,0.0243,0.0239,0.0242,0.0235,0.0221,0.023,0.0195,0.0192,0.0198,0.0147,0.0146,0.0113,0.0078,0.0069,0.0062,0.0051,0.0037,0.0044,0.0048,0.0055,0.0019,0.0022,0.0025,-0.0011,-0.0011,-0.0011,0,0,0.0271,0.0262,0.0279,0.0274,0.0264,0.0251,0.0255,0.0233,0.0222,0.0214,0.018,0.0158,0.0124,0.0103,0.0088,0.0105,0.0063,0.0094,0.0137,0.0103,0.0106,0.0108,0.0076,0.0075,0.0099,0.0099,0.0099,0,0.0281,0.0302,0.0281,0.0297,0.0303,0.0268,0.0292,0.0275,0.0251,0.0249,0.0224,0.0176,0.0142,0.0135,0.0139,0.0118,0.0091,0.012,0.0111,0.0112,0.0113,0.008,0.0077,0.0102,0.0102,0.0101,0.0101,0,0.0322,0.0339,0.0349,0.0362,0.0364,0.0378,0.036,0.0354,0.0334,0.0317,0.0299,0.0247,0.0222,0.0202,0.0176,0.0168,0.0145,0.0121,0.0099,0.012,0.0084,0.008,0.0107,0.0106,0.0105,0.0104,0,0,0.035,0.0376,0.0379,0.0403,0.0404,0.0414,0.0423,0.0426,0.0443,0.0394,0.0405,0.0351,0.0318,0.0298,0.0255,0.022,0.0197,0.0179,0.0176,0.0155,0.0124,0.01,0.0093,0.017,0.017,0.017,0.0097,0,0.0391,0.0446,0.0444,0.0495,0.0525,0.0503,0.052,0.0515,0.05,0.0499,0.0432,0.0423,0.0357,0.0347,0.0302,0.023,0.019,0.022,0.0101,0.0097,0.0079,0.0089,0.0118,0.0055,0.0093,0.0092,0.0091,0,0.0435,0.047,0.0531,0.0576,0.0586,0.0607,0.0636,0.065,0.0632,0.062,0.0588,0.0535,0.0484,0.0419,0.03,0.0322,0.0232,0.0162,0.0157,0.0111,0.0067,0.0039,0.0046,0.0084,0.0085,0.0085,0.0086,0,0.0477,0.0531,0.0588,0.0602,0.0642,0.0661,0.0681,0.0685,0.0722,0.0701,0.0717,0.0633,0.0608,0.0479,0.0332,0.0318,0.0194,0.0155,0.0044,0.0041,0.0031,0.0028,0.0064,0.0064,0.0064,0.0064,0.0064,0,0.0526,0.057,0.0612,0.0643,0.0716,0.0719,0.0793,0.0794,0.0823,0.0883,0.0787,0.0807,0.0622,0.0525,0.0369,0.0204,0.0221,0.0056,0.0022,0.0054,0.0054,0.0051,0.0051,0.0061,0.0062,0.0063,0.0063,0,0.0564,0.0588,0.066,0.0715,0.0738,0.0792,0.088,0.0939,0.0945,0.1018,0.1017,0.0947,0.0823,0.0623,0.0425,0.0272,0.0101,0.0033,0.0084,0.0057,-0.0042,-0.0038,-0.0097,-0.0098,-0.0099,-0.01,-0.0101,0,0.0589,0.0629,0.0718,0.0773,0.0802,0.0886,0.0954,0.0998,0.1077,0.1113,0.1159,0.1058,0.1015,0.0708,0.0419,0.014,0.0101,-0.0024,-0.0054,-0.0031,-0.0058,-0.0052,-0.0047,-0.0044,-0.0044,-0.0044,-0.0044,0,0.0642,0.067,0.0733,0.0848,0.093,0.104,0.1139,0.122,0.1283,0.1337,0.1393,0.1355,0.1066,0.0791,0.0398,0.0213,0.002,-0.0038,-0.0022,-0.0005,0.0014,-0.0011,-0.0006,-0.0047,-0.0046,-0.0046,-0.0046,-0.0046,0.0681,0.0737,0.0821,0.0933,0.1036,0.1175,0.1278,0.1393,0.152,0.1611,0.1572,0.1521,0.1192,0.07,0.0355,-0.0005,0.0014,-0.0114,-0.0111,-0.0109,-0.0087,-0.0071,-0.0143,-0.0143,-0.0144,-0.0144,-0.0144,0,0.0736,0.0801,0.0904,0.104,0.1163,0.1213,0.1393,0.1499,0.1656,0.1727,0.1769,0.146,0.1138,0.0756,0.0217,-0.0103,-0.0118,-0.0198,-0.0153,-0.0148,-0.0144,-0.0123,-0.019,-0.0191,-0.0192,-0.0193,0,0,0.0766,0.0868,0.0922,0.112,0.1224,0.14,0.1511,0.1659,0.1753,0.1824,0.1797,0.1735,0.1258,0.0859,0.0421,0.0108,0.0059,0.0057,0.0131,0.0242,0.025,-0.0057,-0.0014,0,0,0,0,0]}],[{"header":{"parameterUnit":"m.s-1","parameterCategory":2,"la1":30.2991,"la2":30.254,"lo1":-89.0895,"lo2":-89.0444,"dy":0.0017,"dx":0.0017,"nx":28,"ny":28,"refTime":"2025-11-19T09:00:00:Z","depth":"4","parameterNumber":2,"parameterNumberName":"U-component_of_CURRENTS"},"data":[0,0,0,0,0,0,0,0,0,0,0,0,0,0,0,0,0,0,0,0,0,0,0,0,0,0,0,0,0,0,0,0,0,0,0,0,0,0,0,0,0,0,0,0,0,0,0,0,0,0,0,0,0,0,0,0,0,0,0.1933,0.1933,0,0.1996,0.1996,0.1997,0.2056,0.2057,0.2058,0.2059,0.2128,0.2129,0.213,0,0,0,0,0,0,0,0,0,0,0,0,0,0.1848,0.1849,0.1932,0.1933,0.1934,0.1996,0.1996,0.1997,0.2056,0.2057,0.2058,0.2059,0.2128,0.2129,0.213,0,0,0,0,0,0,0,0,0,0,0,0,0,0.1893,0.185,0.1932,0.1973,0.1977,0.1996,0.1996,0.1997,0.2055,0.2057,0.2058,0.206,0.2128,0.2129,0.2131,0.2112,0,0,0.2135,0.2136,0,0,0,0,0,0,0,0,0.1891,0.1896,0.1966,0.197,0.1975,0.2021,0.1993,0.2037,0.2055,0.2023,0.2059,0.206,0.2094,0.2098,0.2103,0.2115,0.2118,0.2135,0.2136,0.2137,0.2137,0,0,0,0,0,0,0,0.1888,0.1894,0.1955,0.1967,0.1972,0.1983,0.1991,0.2001,0.2048,0.2026,0.2031,0.2041,0.2096,0.2102,0.2106,0.2119,0.2135,0.2137,0.2137,0.2138,0.2247,0.2249,0,0,0,0,0,0,0.1884,0.1891,0.1953,0.1957,0.1938,0.1984,0.1992,0.2003,0.2048,0.2057,0.204,0.2044,0.2099,0.2104,0.2108,0.2202,0.2137,0.2138,0.2139,0.2245,0.2248,0.225,0,0,0,0,0,0,0.1881,0.1888,0.1951,0.1927,0.1936,0.1984,0.1995,0.2004,0.2053,0.2059,0.2068,0.2086,0.21,0.2106,0.2159,0.22,0.2139,0.214,0.2243,0.2246,0.2249,0.2315,0,0,0,0,0,0,0.1879,0.1887,0.1913,0.1927,0.1938,0.199,0.1995,0.2004,0.2056,0.2062,0.2101,0.2106,0.2102,0.2157,0.216,0.2201,0.2141,0.224,0.2244,0.2248,0.2311,0.232,0.2329,0,0,0,0,0,0.1875,0.1897,0.1914,0.1923,0.1965,0.1991,0.1998,0.2034,0.2057,0.2083,0.2116,0.2107,0.2184,0.216,0.2163,0.2206,0.2239,0.2243,0.2248,0.2307,0.2318,0.2328,0,0,0,0,0,0,0.1875,0.1906,0.1924,0.1956,0.1987,0.2003,0.2037,0.2057,0.2102,0.2124,0.2128,0.2136,0.2199,0.2194,0.2167,0.225,0.2212,0.2217,0.2255,0.2266,0.2275,0.2281,0.2143,0,0,0,0,0,0.1885,0.1915,0.194,0.1972,0.1991,0.2022,0.2046,0.2071,0.2102,0.2126,0.2152,0.2184,0.2212,0.2234,0.2255,0.2295,0.2299,0.2327,0.2336,0.2344,0.2353,0.2392,0.2405,0.2265,0.2265,0.2265,0,0,0.1895,0.1917,0.1936,0.1976,0.2005,0.2035,0.2041,0.209,0.2126,0.2124,0.2196,0.2219,0.2232,0.2282,0.231,0.2288,0.2389,0.235,0.2356,0.236,0.2398,0.2411,0.2423,0.2268,0.2267,0.2267,0,0,0.1912,0.1951,0.1977,0.2007,0.2058,0.2075,0.2099,0.2141,0.2178,0.2235,0.225,0.2301,0.2341,0.236,0.2371,0.2442,0.2437,0.2457,0.2505,0.2544,0.2555,0.2565,0.2598,0.261,0.2459,0.2459,0.2459,0,0.1927,0.1959,0.1991,0.2022,0.2053,0.2097,0.2131,0.2169,0.2227,0.2259,0.2273,0.2361,0.2376,0.2432,0.2463,0.2463,0.2484,0.246,0.2555,0.2565,0.2574,0.2605,0.2618,0.2463,0.2463,0.2462,0.2462,0,0.1948,0.1992,0.2014,0.2067,0.2104,0.2145,0.2193,0.2247,0.2298,0.233,0.2417,0.2447,0.2496,0.2515,0.2513,0.2591,0.2586,0.2562,0.2524,0.2592,0.262,0.2633,0.2468,0.2467,0.2466,0.2465,0,0,0.1928,0.2012,0.2024,0.2058,0.2135,0.216,0.2234,0.2297,0.2356,0.2422,0.2493,0.2555,0.2586,0.2602,0.2617,0.2656,0.2744,0.2648,0.2648,0.2675,0.2839,0.2664,0.266,0.2742,0.2745,0.2746,0.2835,0,0.1939,0.1997,0.2041,0.2109,0.2141,0.2209,0.227,0.234,0.2411,0.2492,0.2544,0.2623,0.2614,0.2662,0.2699,0.2739,0.2779,0.2722,0.2774,0.2775,0.2606,0.2669,0.2754,0.2844,0.2847,0.2849,0.285,0,0.1935,0.1978,0.2042,0.213,0.2154,0.2208,0.2317,0.2381,0.2495,0.2556,0.264,0.2688,0.2776,0.2756,0.2851,0.2822,0.2842,0.286,0.2863,0.2682,0.2622,0.276,0.2872,0.287,0.2869,0.2867,0.2866,0,0.1883,0.1974,0.2027,0.2059,0.2166,0.2221,0.2291,0.2406,0.2473,0.2617,0.2681,0.2778,0.2849,0.2893,0.2937,0.2913,0.3028,0.2988,0.2847,0.2836,0.2937,0.2925,0.3051,0.3051,0.305,0.305,0.305,0,0.1852,0.1899,0.2017,0.2045,0.2121,0.221,0.2311,0.2398,0.253,0.26,0.2719,0.2782,0.2892,0.296,0.2977,0.2949,0.306,0.2867,0.2847,0.2964,0.2955,0.2946,0.2933,0.3053,0.3053,0.3052,0.3052,0,0.1781,0.1859,0.1927,0.2054,0.21,0.2161,0.2312,0.2373,0.2521,0.2621,0.2674,0.2822,0.2906,0.2985,0.3071,0.2983,0.2987,0.2949,0.3092,0.3077,0.2761,0.2751,0.2791,0.2785,0.2781,0.2777,0.2774,0,0.1743,0.1775,0.192,0.1962,0.2029,0.2135,0.2198,0.2355,0.2415,0.261,0.2633,0.2785,0.2858,0.2841,0.2939,0.296,0.2923,0.2903,0.2805,0.2758,0.2736,0.2732,0.2728,0.2766,0.2765,0.2764,0.2763,0,0.1673,0.1747,0.1803,0.1892,0.1969,0.2035,0.2139,0.2166,0.2331,0.2487,0.2534,0.2581,0.267,0.2727,0.2772,0.2777,0.29,0.2853,0.2862,0.277,0.2729,0.271,0.2712,0.2747,0.2749,0.2751,0.2752,0,0.1628,0.1648,0.1734,0.1794,0.188,0.1895,0.197,0.2028,0.2107,0.2311,0.2325,0.2484,0.2638,0.2634,0.2673,0.2669,0.2619,0.2517,0.2541,0.256,0.2442,0.2353,0.2246,0,0,0,0,0,0.1568,0.1571,0.1622,0.1667,0.1742,0.1788,0.1904,0.1978,0.2135,0.2108,0.2209,0.2278,0.2335,0.2428,0.2378,0.2572,0.2631,0.2501,0.2526,0.2658,0.2677,0.2557,0,0,0,0,0,0,0.1522,0.1569,0.1577,0.1543,0.1547,0.1604,0.1669,0.1777,0.1773,0.1949,0.1999,0.2137,0.2238,0.2341,0.2334,0.236,0.2327,0.261,0.2604,0.2648,0.2664,0.2679,0.2563,0,0,0,0,0]},{"header":{"parameterUnit":"m.s-1","parameterCategory":2,"la1":30.2991,"la2":30.254,"lo1":-89.0895,"lo2":-89.0444,"dy":0.0017,"dx":0.0017,"nx":28,"ny":28,"refTime":"2025-11-19T09:00:00:Z","depth":"4","parameterNumber":3,"parameterNumberName":"V-component_of_CURRENTS"},"data":[0,0,0,0,0,0,0,0,0,0,0,0,0,0,0,0,0,0,0,0,0,0,0,0,0,0,0,0,0,0,0,0,0,0,0,0,0,0,0,0,0,0,0,0,0,0,0,0,0,0,0,0,0,0,0,0,0,0,0.0169,0.0168,0,0.0134,0.0134,0.0134,0.0112,0.0112,0.0112,0.0112,0.0064,0.0063,0.0061,0,0,0,0,0,0,0,0,0,0,0,0,0,0.0177,0.0177,0.0169,0.0168,0.0168,0.0135,0.0134,0.0133,0.0112,0.0112,0.0112,0.0111,0.0064,0.0063,0.0061,0,0,0,0,0,0,0,0,0,0,0,0,0,0.016,0.0177,0.0169,0.0154,0.0152,0.0135,0.0134,0.0133,0.0112,0.0112,0.0112,0.0111,0.0065,0.0063,0.0061,0.0052,0,0,0.0056,0.0055,0,0,0,0,0,0,0,0,0.0161,0.016,0.0156,0.0155,0.0153,0.0128,0.0119,0.0106,0.0112,0.0126,0.0112,0.0111,0.0085,0.0081,0.0074,0.0049,0.0047,0.0055,0.0054,0.0054,0.0053,0,0,0,0,0,0,0,0.0163,0.0161,0.0154,0.0156,0.0154,0.0136,0.0133,0.0117,0.0105,0.0125,0.0123,0.0121,0.0084,0.0076,0.0073,0.0047,0.0056,0.0054,0.0053,0.0052,0.0018,0.0018,0,0,0,0,0,0,0.0171,0.0163,0.0155,0.0153,0.0158,0.0136,0.0133,0.0135,0.0106,0.0102,0.0121,0.012,0.0079,0.0075,0.0071,0.0075,0.0054,0.0052,0.0051,0.0018,0.0018,0.0018,0,0,0,0,0,0,0.0171,0.0171,0.0157,0.0157,0.0155,0.0136,0.0138,0.0135,0.0131,0.0103,0.0099,0.0122,0.0079,0.0073,0.0064,0.0072,0.0051,0.0049,0.0017,0.0018,0.0018,0.0071,0,0,0,0,0,0,0.0172,0.0171,0.0176,0.0158,0.0155,0.0154,0.0138,0.0134,0.013,0.0129,0.0102,0.0098,0.0078,0.0067,0.0062,0.0069,0.0048,0.0017,0.0018,0.0018,0.0069,0.0073,0.0077,0,0,0,0,0,0.0172,0.0182,0.0177,0.0176,0.0162,0.0155,0.0152,0.0137,0.0131,0.0133,0.0116,0.0099,0.0065,0.0066,0.006,0.0067,0.0017,0.0018,0.0018,0.0068,0.0072,0.0077,0,0,0,0,0,0,0.0187,0.018,0.0174,0.0181,0.0172,0.0152,0.0153,0.0142,0.013,0.013,0.0103,0.0097,0.009,0.007,0.0071,0.0057,0.0037,0.0037,0.0077,0.0081,0.0085,0.01,0.0046,0,0,0,0,0,0.0193,0.02,0.0187,0.0192,0.019,0.0172,0.0168,0.0159,0.0146,0.0141,0.0122,0.0102,0.0086,0.0079,0.0061,0.0055,0.0028,0.0054,0.0058,0.0061,0.0068,0.0034,0.0036,0.002,0.002,0.002,0,0,0.02,0.0197,0.0201,0.0196,0.0188,0.0194,0.017,0.0169,0.0174,0.0137,0.0139,0.0115,0.0087,0.0081,0.0076,0.0067,0.0051,0.0062,0.0065,0.007,0.0035,0.0037,0.0038,0.002,0.002,0.002,0,0,0.022,0.0216,0.0229,0.0226,0.022,0.0212,0.0215,0.02,0.0194,0.019,0.0165,0.0148,0.0124,0.0107,0.0095,0.0108,0.0072,0.01,0.0132,0.0099,0.0101,0.0101,0.0068,0.0065,0.0103,0.0103,0.0103,0,0.0228,0.0245,0.023,0.0243,0.0249,0.0225,0.0243,0.0232,0.0216,0.0215,0.0198,0.0162,0.0138,0.013,0.0134,0.0118,0.0092,0.012,0.0105,0.0105,0.0105,0.007,0.0066,0.0105,0.0105,0.0105,0.0105,0,0.0257,0.0271,0.0279,0.0291,0.0294,0.0306,0.0294,0.0292,0.028,0.0269,0.0256,0.0216,0.0198,0.0182,0.0163,0.0152,0.0132,0.0114,0.0096,0.011,0.0072,0.0067,0.0109,0.0108,0.0107,0.0107,0,0,0.0274,0.0297,0.0301,0.032,0.0325,0.0333,0.0342,0.0347,0.0361,0.0327,0.0334,0.0295,0.0271,0.0255,0.0221,0.0189,0.0162,0.0157,0.0154,0.0129,0.0087,0.0068,0.0061,0.0141,0.014,0.014,0.0061,0,0.0302,0.0344,0.0346,0.0388,0.0411,0.04,0.0415,0.0414,0.0405,0.0404,0.0353,0.0348,0.0299,0.0293,0.0253,0.0189,0.0152,0.0185,0.0073,0.007,0.0056,0.0056,0.0139,0.0057,0.0056,0.0055,0.0054,0,0.033,0.0359,0.0408,0.0448,0.0457,0.0477,0.0505,0.0517,0.0505,0.0497,0.0472,0.0432,0.0387,0.0341,0.0233,0.0256,0.018,0.012,0.0115,0.0077,0.0043,0.0039,0.0045,0.0046,0.0047,0.0047,0.0048,0,0.0355,0.0402,0.0448,0.0461,0.0498,0.0519,0.054,0.0547,0.0576,0.0562,0.0572,0.0503,0.0478,0.0371,0.0246,0.0241,0.0117,0.0093,-0.0,-0.0003,0.0015,0.0015,0.0012,0.0012,0.0012,0.0012,0.0013,0,0.0385,0.0422,0.0466,0.0491,0.0554,0.0563,0.0627,0.0631,0.0655,0.0696,0.0628,0.063,0.0484,0.0394,0.0268,0.0122,0.0131,0.0006,-0.0023,0.0038,0.0042,0.0011,0.0012,0.0009,0.001,0.0011,0.0011,0,0.0403,0.043,0.0489,0.0544,0.0568,0.0614,0.0697,0.0743,0.0752,0.0799,0.0799,0.073,0.061,0.045,0.0276,0.0163,0.0018,-0.0039,0.0042,0.0018,-0.0087,-0.0083,-0.0148,-0.015,-0.0151,-0.0152,-0.0152,0,0.0415,0.0448,0.0532,0.058,0.0611,0.0687,0.0747,0.079,0.0845,0.0858,0.088,0.0784,0.0711,0.0461,0.0281,0.0033,-0.0008,-0.0087,-0.0095,-0.0081,-0.0103,-0.0097,-0.0091,-0.0154,-0.0155,-0.0155,-0.0155,0,0.0441,0.0472,0.0524,0.0626,0.07,0.0792,0.0875,0.0922,0.0968,0.0974,0.0952,0.0817,0.0677,0.047,0.0275,0.0095,-0.0038,-0.01,-0.0099,-0.0107,-0.0089,-0.0109,-0.0102,-0.0159,-0.0158,-0.0158,-0.0158,0,0.0462,0.0503,0.0577,0.0668,0.0766,0.0864,0.091,0.0971,0.1021,0.1025,0.1014,0.0856,0.0769,0.0502,0.0325,0.0142,0.0088,0.0022,0.0016,0.0017,0.0081,0.0128,0.0102,0,0,0,0,0,0.0481,0.0532,0.0616,0.0717,0.0818,0.088,0.0983,0.1022,0.106,0.1054,0.1038,0.0904,0.064,0.0534,0.0349,0.0285,0.0045,0.0059,-0.0036,-0.018,-0.0176,-0.0133,0,0,0,0,0,0,0.0493,0.057,0.0613,0.0743,0.082,0.0938,0.1008,0.1038,0.1039,0.1041,0.0913,0.0843,0.0595,0.0745,0.0341,0.0286,0.0196,-0.0062,-0.0066,-0.0183,-0.0179,-0.0175,-0.0129,0,0,0,0,0]}]]